Regional Weather Roundup
Issued by NWS Charleston, WV

Home | Current Version | Previous Version | Text Only | Print | Product List | Glossary On
Versions: 1 2 3 4 5 6 7 8 9 10 11 12 13 14 15 16 17 18 19 20 21 22 23 24 25 26 27 28 29 30 31 32 33 34 35 36 37 38 39 40 41 42 43 44 45 46 47 48 49 50
000
ASUS41 KRLX 280610
RWRRLX
West Virginia Regional Weather Roundup
National Weather Service Charleston WV
200 AM EDT THU MAY 28 2015

Note: "fair" indicates few or no clouds below 12,000 feet with no
significant weather and/or obstructions to visibility.

WVZ003-280700-
Northern Panhandle of West Virginia

CITY           SKY/WX    TMP DP  RH WIND       PRES   REMARKS
WHEELING       NOT AVBL
$$

WVZ009-280700-
Northwest West Virginia

CITY           SKY/WX    TMP DP  RH WIND       PRES   REMARKS
PARKERSBURG    MOCLDY    68  62  81 CALM      30.18S
$$

WVZ006-280700-
Western West Virginia

CITY           SKY/WX    TMP DP  RH WIND       PRES   REMARKS
HUNTINGTON     CLOUDY    66  60  81 SW3       30.17S
$$

WVZ015-280700-
West Central West Virginia

CITY           SKY/WX    TMP DP  RH WIND       PRES   REMARKS
CHARLESTON     MOCLDY    65  63  93 CALM      30.18R
$$

WVZ022-031-280700-
North Central West Virginia

CITY           SKY/WX    TMP DP  RH WIND       PRES   REMARKS
CLARKSBURG     PTCLDY    64  62  93 CALM      30.18R
MORGANTOWN     PTCLDY    70  60  70 S3        30.18R
$$

WVZ025-035-042-045-280700-
Southern West Virginia

CITY           SKY/WX    TMP DP  RH WIND       PRES   REMARKS
BECKLEY        PTCLDY    63  57  81 CALM      30.25F
LOGAN          CLOUDY    68  63  83 CALM      30.17S
BLUEFIELD      PTCLDY    68  55  63 CALM      30.27F
LEWISBURG      PTCLDY    61  56  85 CALM      30.25S
$$

WVZ047-280700-
Northern Mountains of West Virginia

CITY           SKY/WX    TMP DP  RH WIND       PRES   REMARKS
ELKINS         CLOUDY    62  59  90 CALM      30.23F
$$

WVZ052-280700-
Eastern Panhandle of West Virginia

CITY           SKY/WX    TMP DP  RH WIND       PRES   REMARKS
MARTINSBURG    MOCLDY    69  63  81 CALM      30.13F
PETERSBURG     FOG       63  60  90 CALM      30.18S VSB 1
$$


USA.gov is the U.S. government's official web portal to all federal, state and local government web resources and services.